Погода в Салехарде

Погода в Салехарде : погода сейчас, прогноз погоды и архив. Всё, что Вы хотите узнать о погоде в Салехарде!

Хотите узнать прогноз погоды в Салехарде? Тогда Вам сюда: Погода в Салехарде

Поиск расширенной информации на нашем сайте:

Другие новости

Новости СМИ2

Главная страница сайта

Новости сайта

03.07.2017

Напоминаем, что на нашем специализированном сайте Метеоцентр.Азия вы можете получить высокодетализированные автоматические прогнозы погоды по пунктам России, СНГ и мира в авиационном формате (включающие направление и скорость ветра, видимость, явления погоды, количество и форму облачности, нижнюю и верхнюю границу облачности).


Погода в Салехарде - сегодня

Время (UTC), дата Ветер
(°,м/с) 
Видим.   Явления Облачность Т
(°С)
Тd
(°С)
f(%) Тe
(°С)
Pmin
(гПа)
dP
(гПа)
Po
(мм)
O2
(г/м3)
Тmin Tmax R s Состояние
почвы
12 16.08.18 250 (З) 20000 м    10/4 1000 м средняя 
[Cu Sc|Ac trans]
+14.6 +5.6 55 +15  1009.6  0.3  756  288           
18 16.08.18 290 (З) 10 км    10/8 1000 м средняя 
[Sc diur, vesp|Ac trans]
+10.7 +7.4 80 +11  1009.8  0.1  756  292           
21 16.08.18 280 (З) 10 км  в посл. час ливневой дождь  10/8 300 м кучево-дожд., средняя 
[Cb calv|Ac trans]
+9.3 +6.7 84 +10  1010.2  0.4  756  294           
00 17.08.18 280 (З) 20000 м  в посл. час ливневой дождь  10/10 300 м кучево-дожд. 
[Cb calv]
+8.8 +7.5 92 +10  1010.4  0.2  756  294           
03 17.08.18 310 (СЗ) 20000 м    10/6 300 м кучево-дожд., средняя 
[Cb calv|Ac trans]
+9.8 +6 77 +10  1011.3  0.2  757  293  +6.4        влажная 
06 17.08.18 300 (СЗ) 20000 м    10/10 1230 м 
[Sc diur, vesp]
+10.7 +6 73 +11  1012.2  0.9  758  293           
09 17.08.18 300 (СЗ) 20000 м    10/8 1260 м средняя 
[Sc diur, vesp|Ac und]
+13.2 +5.7 60 +13  1012.9  0.7  758  291           
12 17.08.18 320 (СЗ) 20000 м    10/6 600 м средняя 
[Sc diur, vesp|Ac trans]
+12.4 +5 61 +12  1013.5  0.6  759  292           
18 17.08.18 360 (С) 10 км    10/6 600 м средняя 
[Sc|Ac trans]
+9.6 +6.9 83 +10  1015  0.8  760  295           
21 17.08.18 350 (С) 10 км    9/5 600 м средняя 
[Sc diur, vesp|Ac lent]
+7 +5 87 +8  1015.6  0.6  760  298           
00 18.08.18 330 (СЗ) 20000 м    6/4 600 м средняя 
[Sc|Ac trans]
+5.6 +3.9 89 +5  1016.8  1.1  761  300           
03 18.08.18 040 (СВ) 20000 м    8/4 600 м средняя 
[Sc|Ac trans]
+9.5 +4.6 71 +10  1017.5  0.8  762  296  +5.4        влажная 
06 18.08.18 020 (С) 20000 м    10/6 1000 м средняя 
[Sc|Ac trans]
+10.7 +4.6 66 +11  1018.2  0.7  762  295           
09 18.08.18 020 (С) 20000 м    10/10 1000 м 
[Sc]
+12.6 +5 60 +13  1018.6  0.4  762  293           
12 18.08.18 020 (С) 20000 м    10/3 1000 м средняя 
[Sc|Ac trans]
+11.9 +4.9 62 +12  1019.1  0.5  763  294           
15 18.08.18 060 (СВ) 20000 м    10/6 1020 м средняя 
[Sc|Ac trans]
+10.4 +6.7 78 +12  1019.9  0.7  763  295    +12.6       
18 18.08.18 040 (СВ) 10 км    10/8 600 м средняя 
[Sc diur, vesp|Ac trans]
+7.3 +5.7 90 +7  1020.1  0.2  764  299           
21 18.08.18 070 (В) 10 км    8/3 720 м средняя 
[Sc diur, vesp|Ac trans]
+5.5 +4.6 94 +5  1020.3  0.2  764  301           
00 19.08.18 тихо ()   20000 м    9/6 600 м средняя 
[Sc diur, vesp|Ac trans]
+4.2 +3.4 95 +4  1019.9  -0.4  763  302           
03 19.08.18 210 (ЮЗ) 20000 м    10/8 300 м средняя, верхняя 
[Sc diur, vesp|Ac trans|Ci fib]
+9.9 +7 82 +10  1019  -0.9  763  295  +2.3        влажная 
06 19.08.18 220 (ЮЗ) 20000 м    10/8 800 м средняя 
[Sc diur, vesp|Ac trans]
+12.3 +6.7 69 +12  1017.4  -1.5  762  293           
09 19.08.18 200 (Ю) 20000 м    10/8 1000 м средняя, верхняя 
[Sc diur, vesp|Ac trans|Ci fib]
+13.5 +7.4 67 +13  1015.7  -1.7  760  291           
12 19.08.18 200 (Ю) 20000 м    10/5 1000 м средняя, верхняя 
[Sc diur, vesp|Ac trans|Ci fib]
+14.1 +8.5 69 +14  1014.6  -1.1  759  290           
15 19.08.18 200 (Ю) 20000 м  {ливн. осадки}  10/8 1000 м средняя 
[Sc diur, vesp|Ac trans]
+13.8 +7.8 67 +14  1013.6  -1  759  290    +14.4  0.0     
18 19.08.18 220 (ЮЗ) 4000 м  слаб. ливневой дождь  10/10 300 м кучево-дожд. 
[Cb calv]
+12.9 +10 83 +14  1012.8  -0.7  758  290           
Время (UTC), дата Ветер
(°,м/с) 
Видим.   Явления Облачность Т
(°С)
Тd
(°С)
f(%) Тe
(°С)
Pmin
(гПа)
dP
(гПа)
Po
(мм)
O2
(г/м3)
Тmin Tmax R s Состояние
почвы

Для получения пояснительной информации подведите курсор к названию столбца.

ПОГОДА в Салехарде - архив

Всё, что Вы хотите узнать о погоде в Салехарде - удобно и подробно!

Выберите нужную дату (начиная с 1 января 2015* года) и нажмите кнопку "Найти".
Будут отображены архивные сводки погоды по пункту Салехард, начиная с указанной даты.


Отображать данные в формате CSV (для использования в таблицах Excel)


Внимание! Наш архив погоды предназначен исключительно для личного некоммерческого использования в познавательных целях. Если Вам необходимы официальные справки о состоянии погоды (для производственных, юридических, коммерческих и т.п. целей), обращайтесь в органы Росгидромета.

*Примечание: данная дата относится к архиву по метеостанциям СССР (Россия, СНГ, Балтия).
Архив по метеостанциям Зарубежной Европы и Азии (кроме Китая) хранится 10 дней, по другим регионам земного шара (Китай, Африка, Америка, Австралия, Океания) - 1 день.

Салехард - район местоположения метеостанции


Название, широта, долгота, высота метеостанции:
Салехард (город) 66.5°ш. 66.7°д. 16 м над ур. моря [Российская Федерация]

Дополнительная информация

В oтличие oт бoльшинства пoгoдных сайтoв мы публикуем пoдрoбную метеoинфoрмацию в детальнoм прoфессиoнальнoм фoрмате.

Характеристики температуры и влажнoсти вoздуха измеряются на высoте 2 м в тени вдали oт зданий и деревьев.
Скoрoсть ветра измеряется на высoте 10 м (на урoвне рoста челoвека скoрoсть ветра ниже в 1.5-2 раза). Если метеoстанция нахoдится в гoрoде или в лесу, тo скoрoсть ветра занижена на 2-4 м/с пo сравнению с oткрытым местoм. Скoрoсть ветра над акватoриями крупных рек и oзёр, а также на вершинах хoлмoв на 2-5 м/с выше, чем в oбычных услoвиях.
Атмoсфернoе давление в разных тoчках местнoсти мoжет значительнo oтличаться oт давления на метеoстанции, в зависимoсти oт услoвий рельефа (при пoдъёме на 10 м давление пoнижается примернo на 1 мм рт.ст.).